Volver al catálogo

CZ-6A DEB

ActivoPO
NORAD 54575·DEBRIS·🇨🇳 China

Lanzado Nov 11, 2022 desde Taiyuan Satellite Launch Center

Loading…

Próximos Pases (próximas 24 horas)

TLE

ActualizadoSource: Space-Track

Época: Sep 14, 2026, 04:25 UTC

1 54575U 22151MB  26257.18406368  .00003225  00000-0  52303-3 0  9993
2 54575  98.6203 336.8000 0118327 351.1267   8.7843 14.67406751203098

Sigue CZ-6A DEB en tiempo real con AllMySat

Download on the App Store